Flag for Portugal Weather past 2 weeks in Braga, Portugal

Now
80 °F

Warm.


Feels Like: 80 °F
Forecast: 57 / 81 °F
Wind: 3 mph from Northeast

Location: Porto / Pedras Rubras

Current Time: Oct 24, 2014 at 2:10:14 PM

Latest Report: Oct 24, 2014 at 1:00 PM


Visibility: N/A

Pressure: 30.09 "Hg

Humidity: 40%

Dew point: 54 °F

Location of BragaLocation

Historic Weather in Braga — Graph

°F

Braga temperature yesterday

Maximum temperature yesterday: 82 °F (at 2:00 PM)
Minimum temperature yesterday: 64 °F (at 6:00 AM)
Average temperature yesterday: 71 °F

Past Weeks' High & Low Weather Summary

 TemperatureHumidityPressure
High85 °F (Oct 20, 3:00 PM)94% (Oct 10, 10:00 AM)30.36 "Hg (Oct 10, 10:00 AM)
Low52 °F (Oct 14, 7:00 AM)34% (Oct 23, 1:00 PM)29.57 "Hg (Oct 12, 6:00 AM)
Average66 °F76%29.96 "Hg
* Reported Oct 9 12:00 Noon — Oct 24 12:00 Noon, Braga, Weather by CustomWeather, © 2014

Note: Actual official high and low records may vary slightly from our data, if they occured in-between our weather recording intervals... More about our weather records

Advertising

Braga weather history for previous 24 hours

 ConditionsComfort  
Time TempWeatherWind HumidityBarometerVisibility
12:00 PM
Oct 24
75 °FMild.2 mph49%30.11 "HgN/A
11:00 AM72 °FMild.3 mph54%30.11 "HgN/A
10:00 AM69 °FMild.5 mph57%30.11 "HgN/A
9:00 AM66 °FMild.7 mph63%30.09 "HgN/A
8:00 AM64 °FMild.3 mph70%30.08 "HgN/A
7:00 AM65 °FMild.5 mph70%30.08 "HgN/A
6:00 AM65 °FMild.3 mph68%30.09 "HgN/A
5:00 AM66 °FMild.2 mph67%30.10 "HgN/A
4:00 AM65 °FMild.1 mph70%30.11 "HgN/A
3:00 AM68 °FMild.6 mph61%30.10 "HgN/A
2:00 AM67 °FMild.5 mph68%30.11 "HgN/A
1:00 AM67 °FMild.2 mph66%30.12 "HgN/A
12:00 AM68 °FMild.5 mph65%30.13 "HgN/A
11:00 PM
Oct 23
67 °FMild.3 mph80%30.15 "HgN/A
10:00 PM67 °FMild.2 mph74%30.16 "HgN/A
9:00 PM71 °FMild.3 mph66%30.16 "HgN/A
8:00 PM69 °FMild.5 mph63%30.17 "HgN/A
7:00 PM73 °FMild.5 mph61%30.15 "HgN/A
6:00 PM73 °FMild.2 mph63%30.16 "HgN/A
5:00 PM74 °FMild.1 mph60%30.16 "HgN/A
4:00 PM74 °FMild.2 mph63%30.18 "HgN/A
3:00 PM82 °FPleasantly warm.2 mph36%30.18 "HgN/A
2:00 PM82 °FPleasantly warm.3 mph34%30.19 "HgN/A
Weather by CustomWeather, © 2014

See weather overviewHow to use our weather pages